TimeEDT,TemperatureF,Dew PointF,Humidity,Sea Level PressureIn,VisibilityMPH,Wind Direction,Wind SpeedMPH,Gust SpeedMPH,PrecipitationIn,Events,Conditions,WindDirDegrees,DateUTC
12:56 AM,69.1,57.9,68,29.92,10.0,Calm,Calm,-,N/A,,Overcast,0,2013-09-08 04:56:00
1:56 AM,68.0,57.9,70,29.91,10.0,SSE,3.5,-,N/A,,Overcast,150,2013-09-08 05:56:00
2:56 AM,66.9,60.1,79,29.91,10.0,Calm,Calm,-,0.00,,Overcast,0,2013-09-08 06:56:00
3:56 AM,66.9,60.1,79,29.90,10.0,Calm,Calm,-,N/A,,Overcast,0,2013-09-08 07:56:00
4:56 AM,64.9,60.1,84,29.89,10.0,Calm,Calm,-,N/A,,Overcast,0,2013-09-08 08:56:00
5:56 AM,66.0,57.0,73,29.89,10.0,Calm,Calm,-,N/A,,Mostly Cloudy,0,2013-09-08 09:56:00
6:56 AM,66.0,55.9,70,29.90,10.0,Calm,Calm,-,N/A,,Scattered Clouds,0,2013-09-08 10:56:00
7:56 AM,66.9,57.9,73,29.90,10.0,NW,5.8,-,N/A,,Scattered Clouds,320,2013-09-08 11:56:00
8:56 AM,69.1,57.9,68,29.88,10.0,NW,6.9,-,N/A,,Mostly Cloudy,320,2013-09-08 12:56:00
9:56 AM,73.0,60.1,64,29.90,10.0,WNW,8.1,-,N/A,,Scattered Clouds,300,2013-09-08 13:56:00
10:56 AM,77.0,62.1,60,29.90,10.0,WNW,6.9,-,N/A,,Scattered Clouds,290,2013-09-08 14:56:00
11:56 AM,79.0,62.1,56,29.90,10.0,NW,12.7,19.6,N/A,,Mostly Cloudy,310,2013-09-08 15:56:00
12:56 PM,78.1,62.1,58,29.90,10.0,North,11.5,19.6,N/A,,Mostly Cloudy,10,2013-09-08 16:56:00
1:56 PM,77.0,61.0,58,29.91,10.0,NNW,10.4,-,N/A,,Scattered Clouds,340,2013-09-08 17:56:00
2:56 PM,80.1,62.1,54,29.91,10.0,NNW,8.1,-,N/A,,Mostly Cloudy,340,2013-09-08 18:56:00
3:56 PM,80.1,59.0,48,29.91,10.0,NNW,11.5,-,N/A,,Mostly Cloudy,340,2013-09-08 19:56:00
4:56 PM,79.0,59.0,50,29.92,10.0,North,12.7,-,N/A,,Scattered Clouds,360,2013-09-08 20:56:00
5:56 PM,78.1,57.0,48,29.94,10.0,North,13.8,-,N/A,,Scattered Clouds,360,2013-09-08 21:56:00
6:56 PM,73.9,55.0,52,29.96,10.0,NNE,9.2,-,N/A,,Partly Cloudy,20,2013-09-08 22:56:00
7:56 PM,71.1,52.0,51,29.99,10.0,North,3.5,-,N/A,,Clear,10,2013-09-08 23:56:00
8:56 PM,68.0,51.1,55,30.02,10.0,ENE,3.5,-,N/A,,Clear,70,2013-09-09 00:56:00
9:56 PM,66.0,46.0,48,30.06,10.0,Variable,3.5,-,N/A,,Partly Cloudy,0,2013-09-09 01:56:00
10:56 PM,64.0,42.1,45,30.06,10.0,North,8.1,-,N/A,,Partly Cloudy,10,2013-09-09 02:56:00
11:56 PM,61.0,42.1,50,30.10,10.0,ENE,5.8,-,N/A,,Scattered Clouds,70,2013-09-09 03:56:00